| time (UTC) | temp F | wind direction | speed knots | gust knots | rain 1hr in | rain 24hr in | rain mn in | humidity % | barometer mb |
| 20260831110407 | 76 | 236 | 4.3 | 12.2 | 0.00 | 0.00 | 0.00 | 56 | 1019.2 |
| 20260831104907 | 78 | 209 | 2.6 | 11.3 | 0.00 | 0.00 | 0.00 | 56 | 1019.1 |
| 20260831103402 | 77 | 230 | 3.5 | 10.4 | 0.00 | 0.00 | 0.00 | 59 | 1019.1 |
| 20260831101902 | 76 | 145 | 4.3 | 10.4 | 0.00 | 0.00 | 0.00 | 59 | 1019.1 |
| 20260831100402 | 74 | 261 | 3.5 | 10.4 | 0.00 | 0.00 | 0.00 | 63 | 1019.1 |
| 20260831094906 | 75 | 240 | 4.3 | 10.4 | 0.00 | 0.00 | 0.00 | 61 | 1019.4 |
| 20260831093405 | 74 | 162 | 3.5 | 13.0 | 0.00 | 0.00 | 0.00 | 62 | 1019.5 |
| 20260831084904 | 73 | 211 | 2.6 | 11.3 | 0.00 | 0.00 | 0.00 | 65 | 1019.5 |
| 20260831083402 | 72 | 190 | 4.3 | 13.9 | 0.00 | 0.00 | 0.00 | 64 | 1019.3 |
| 20260831081905 | 72 | 255 | 3.5 | 9.6 | 0.00 | 0.00 | 0.00 | 64 | 1019.3 |
| 20260831080402 | 71 | 185 | 4.3 | 10.4 | 0.00 | 0.00 | 0.00 | 67 | 1019.3 |
| 20260831074902 | 71 | 297 | 3.5 | 9.6 | 0.00 | 0.00 | 0.00 | 69 | 1019.1 |
| 20260831073402 | 68 | 294 | 3.5 | 10.4 | 0.00 | 0.00 | 0.00 | 75 | 1018.9 |
| 20260831071904 | 68 | 180 | 2.6 | 8.7 | 0.00 | 0.00 | 0.00 | 75 | 1018.9 |
| 20260831070404 | 68 | 202 | 4.3 | 12.2 | 0.00 | 0.00 | 0.00 | 74 | 1018.8 |
| 20260831064902 | 69 | 273 | 3.5 | 9.6 | 0.00 | 0.00 | 0.00 | 74 | 1018.8 |
| 20260831063404 | 67 | 209 | 2.6 | 9.6 | 0.00 | 0.00 | 0.00 | 77 | 1018.7 |
| 20260831060404 | 66 | 233 | 2.6 | 10.4 | 0.00 | 0.00 | 0.00 | 78 | 1018.3 |
| 20260831054904 | 66 | 136 | 2.6 | 13.0 | 0.00 | 0.00 | 0.00 | 79 | 1018.3 |
| 20260831053405 | 65 | 302 | 2.6 | 11.3 | 0.00 | 0.00 | 0.00 | 81 | 1018.2 |
| 20260831051904 | 65 | 205 | 3.5 | 7.0 | 0.00 | 0.00 | 0.00 | 81 | 1018.1 |
| 20260831050404 | 64 | 228 | 1.7 | 8.7 | 0.00 | 0.00 | 0.00 | 82 | 1018.1 |
| 20260831044904 | 64 | 263 | 2.6 | 7.0 | 0.00 | 0.00 | 0.00 | 84 | 1017.9 |
| 20260831043411 | 64 | 194 | 1.7 | 7.0 | 0.00 | 0.00 | 0.00 | 85 | 1017.9 |
| 20260831040415 | 64 | 155 | 1.7 | 6.1 | 0.00 | 0.00 | 0.00 | 85 | 1018.1 |
| 20260831034921 | 64 | 321 | 1.7 | 4.3 | 0.00 | 0.00 | 0.00 | 84 | 1017.6 |
| 20260831033418 | 64 | 291 | 2.6 | 9.6 | 0.00 | 0.00 | 0.00 | 86 | 1017.7 |
| 20260831031905 | 64 | 201 | 3.5 | 12.2 | 0.00 | 0.00 | 0.00 | 86 | 1018.3 |
| 20260831030409 | 65 | 217 | 5.2 | 20.0 | 0.00 | 0.00 | 0.00 | 85 | 1018.7 |
| 20260831023408 | 65 | 195 | 0.0 | 2.6 | 0.00 | 0.00 | 0.00 | 85 | 1015.8 |
| 20260831021905 | 66 | 246 | 0.9 | 3.5 | 0.00 | 0.00 | 0.00 | 84 | 1015.9 |
| 20260831020405 | 66 | 222 | 0.9 | 3.5 | 0.00 | 0.00 | 0.00 | 84 | 1015.6 |
| 20260831013403 | 66 | 208 | 0.0 | 0.0 | 0.00 | 0.00 | 0.00 | 85 | 1015.7 |
| 20260831011901 | 66 | 198 | 0.0 | 0.0 | 0.00 | 0.00 | 0.00 | 84 | 1015.8 |
| 20260831004901 | 66 | 211 | 0.0 | 1.7 | 0.00 | 0.00 | 0.00 | 84 | 1016.2 |
| 20260831003402 | 66 | 211 | 0.0 | 0.9 | 0.00 | 0.00 | 0.00 | 83 | 1016.3 |
| 20260831001902 | 67 | 211 | 0.0 | 0.9 | 0.00 | 0.00 | 0.00 | 83 | 1016.5 |
| 20260831000403 | 67 | 211 | 0.9 | 1.7 | 0.00 | 0.00 | 0.00 | 82 | 1016.6 |
| 20260830234858 | 67 | 205 | 0.9 | 2.6 | 0.00 | 0.00 | 0.00 | 82 | 1016.5 |
| 20260830233359 | 67 | 202 | 0.0 | 1.7 | 0.00 | 0.00 | 0.00 | 81 | 1016.7 |
| 20260830230356 | 67 | 202 | 0.9 | 2.6 | 0.00 | 0.00 | 0.00 | 80 | 1017.0 |
| 20260830224858 | 67 | 200 | 0.0 | 1.7 | 0.00 | 0.00 | 0.00 | 80 | 1017.0 |
| 20260830223357 | 68 | 204 | 0.9 | 2.6 | 0.00 | 0.00 | 0.00 | 79 | 1017.2 |
| 20260830221901 | 68 | 210 | 0.0 | 1.7 | 0.00 | 0.00 | 0.00 | 79 | 1017.4 |
| 20260830220358 | 68 | 210 | 0.0 | 0.9 | 0.00 | 0.00 | 0.00 | 78 | 1017.4 |
| 20260830214857 | 69 | 210 | 0.0 | 1.7 | 0.00 | 0.00 | 0.00 | 77 | 1017.3 |
| 20260830213357 | 69 | 209 | 0.0 | 1.7 | 0.00 | 0.00 | 0.00 | 77 | 1017.2 |
| 20260830211856 | 69 | 210 | 0.0 | 1.7 | 0.00 | 0.00 | 0.00 | 77 | 1017.3 |
| 20260830203357 | 70 | 210 | 0.0 | 1.7 | 0.00 | 0.00 | 0.00 | 74 | 1017.2 |
| 20260830201900 | 71 | 210 | 0.9 | 1.7 | 0.00 | 0.00 | 0.00 | 73 | 1017.2 |
| 20260830194855 | 71 | 290 | 0.0 | 0.0 | 0.00 | 0.00 | 0.00 | 71 | 1017.5 |
| 20260830191853 | 70 | 290 | 0.0 | 0.0 | 0.00 | 0.00 | 0.00 | 74 | 1017.4 |
| 20260830190358 | 71 | 290 | 0.0 | 0.0 | 0.00 | 0.00 | 0.00 | 71 | 1017.3 |
| 20260830181853 | 74 | 290 | 0.0 | 0.0 | 0.00 | 0.00 | 0.00 | 65 | 1016.9 |
| 20260830180343 | 74 | 290 | 0.0 | 0.0 | 0.00 | 0.00 | 0.00 | 65 | 1016.9 |
| 20260830171845 | 76 | 290 | 0.0 | 2.6 | 0.00 | 0.00 | 0.00 | 60 | 1016.8 |
| 20260830170344 | 77 | 271 | 0.9 | 4.3 | 0.00 | 0.00 | 0.00 | 58 | 1016.8 |
| 20260830163337 | 78 | 265 | 0.9 | 5.2 | 0.00 | 0.00 | 0.00 | 58 | 1016.7 |
| 20260830161832 | 79 | 266 | 1.7 | 4.3 | 0.00 | 0.00 | 0.00 | 54 | 1016.7 |
| 20260830160332 | 80 | 275 | 0.9 | 5.2 | 0.00 | 0.00 | 0.00 | 54 | 1016.7 |
| 20260830154831 | 80 | 281 | 2.6 | 6.1 | 0.00 | 0.00 | 0.00 | 52 | 1016.7 |
| 20260830153331 | 80 | 263 | 1.7 | 7.0 | 0.00 | 0.00 | 0.00 | 52 | 1016.7 |
| 20260830151831 | 81 | 247 | 1.7 | 5.2 | 0.00 | 0.00 | 0.00 | 50 | 1016.7 |
| 20260830144831 | 81 | 151 | 1.7 | 6.1 | 0.00 | 0.00 | 0.00 | 50 | 1016.7 |
| 20260830143328 | 83 | 254 | 1.7 | 6.1 | 0.00 | 0.00 | 0.00 | 47 | 1016.8 |
| 20260830141825 | 83 | 259 | 1.7 | 7.8 | 0.00 | 0.00 | 0.00 | 50 | 1016.8 |
| 20260830140323 | 83 | 192 | 1.7 | 8.7 | 0.00 | 0.00 | 0.00 | 48 | 1016.9 |
| 20260830134823 | 84 | 299 | 1.7 | 6.1 | 0.00 | 0.00 | 0.00 | 48 | 1016.9 |
| 20260830133028 | 83 | 236 | 1.7 | 7.8 | 0.00 | 0.00 | 0.00 | 47 | 1017.1 |
| 20260830130317 | 82 | 254 | 2.6 | 8.7 | 0.00 | 0.00 | 0.00 | 50 | 1017.1 |
| 20260830123319 | 82 | 164 | 0.9 | 3.5 | 0.00 | 0.00 | 0.00 | 50 | 1017.4 |
| 20260830120319 | 81 | 284 | 1.7 | 6.1 | 0.00 | 0.00 | 0.00 | 50 | 1017.7 |
| 20260830114810 | 82 | 282 | 1.7 | 7.8 | 0.00 | 0.00 | 0.00 | 51 | 1017.7 |
| 20260830113311 | 81 | 282 | 1.7 | 7.8 | 0.00 | 0.00 | 0.00 | 52 | 1017.7 |